Time,TemperatureF,DewpointF,PressureIn,WindDirection,WindDirectionDegrees,WindSpeedMPH,WindSpeedGustMPH,Humidity,HourlyPrecipIn,Conditions,Clouds,dailyrainin,SoftwareType,DateUTC
2013-02-01 00:01:00,56.5,43.0,30.16,NNW,337,3.0,-999.0,61,-99.99,,,0.00,weatherlink.com 1.10,2013-02-01 05:01:00,
2013-02-01 00:16:00,56.4,42.0,30.16,NW,326,3.0,-999.0,60,-99.99,,,0.00,weatherlink.com 1.10,2013-02-01 05:16:00,
2013-02-01 00:31:00,56.3,41.0,30.16,NNW,329,3.0,-999.0,58,-99.99,,,0.00,weatherlink.com 1.10,2013-02-01 05:31:00,
2013-02-01 00:46:00,56.2,41.0,30.16,NNW,330,1.0,-999.0,57,-99.99,,,0.00,weatherlink.com 1.10,2013-02-01 05:46:00,
2013-02-01 01:01:00,55.8,41.0,30.16,NNW,328,2.0,-999.0,59,-99.99,,,0.00,weatherlink.com 1.10,2013-02-01 06:01:00,
2013-02-01 01:16:00,55.5,41.0,30.16,NNW,329,2.0,-999.0,59,-99.99,,,0.00,weatherlink.com 1.10,2013-02-01 06:16:00,
2013-02-01 01:31:00,55.3,41.0,30.17,NNW,327,3.0,-999.0,59,-99.99,,,0.00,weatherlink.com 1.10,2013-02-01 06:31:00,
2013-02-01 01:46:00,55.0,40.0,30.17,NNW,327,2.0,-999.0,58,-99.99,,,0.00,weatherlink.com 1.10,2013-02-01 06:46:00,
2013-02-01 02:01:00,54.5,40.0,30.16,NNW,333,2.0,-999.0,59,-99.99,,,0.00,weatherlink.com 1.10,2013-02-01 07:01:00,
2013-02-01 02:16:00,54.2,40.0,30.16,NW,313,2.0,-999.0,60,-99.99,,,0.00,weatherlink.com 1.10,2013-02-01 07:16:00,
2013-02-01 02:31:00,53.8,40.0,30.16,NW,321,2.0,-999.0,60,-99.99,,,0.00,weatherlink.com 1.10,2013-02-01 07:31:00,
2013-02-01 02:46:00,53.6,39.0,30.16,NNW,331,3.0,-999.0,59,-99.99,,,0.00,weatherlink.com 1.10,2013-02-01 07:46:00,
2013-02-01 03:01:00,53.4,39.0,30.16,NW,323,3.0,-999.0,59,-99.99,,,0.00,weatherlink.com 1.10,2013-02-01 08:01:00,
2013-02-01 03:16:00,53.1,39.0,30.16,NW,326,2.0,-999.0,59,-99.99,,,0.00,weatherlink.com 1.10,2013-02-01 08:16:00,
2013-02-01 03:31:00,52.8,39.0,30.16,WNW,302,0.0,-999.0,59,-99.99,,,0.00,weatherlink.com 1.10,2013-02-01 08:31:00,
2013-02-01 03:46:00,52.4,39.0,30.16,NNW,331,1.0,-999.0,60,-99.99,,,0.00,weatherlink.com 1.10,2013-02-01 08:46:00,
2013-02-01 04:01:00,52.0,39.0,30.15,NW,322,2.0,-999.0,61,-99.99,,,0.00,weatherlink.com 1.10,2013-02-01 09:01:00,
2013-02-01 04:16:00,51.7,39.0,30.16,NNW,327,2.0,-999.0,63,-99.99,,,0.00,weatherlink.com 1.10,2013-02-01 09:16:00,
2013-02-01 04:31:00,51.4,39.0,30.16,NW,322,3.0,-999.0,64,-99.99,,,0.00,weatherlink.com 1.10,2013-02-01 09:31:00,
2013-02-01 04:46:00,51.3,39.0,30.16,WNW,302,2.0,-999.0,64,-99.99,,,0.00,weatherlink.com 1.10,2013-02-01 09:46:00,
2013-02-01 05:01:00,51.1,40.0,30.17,WNW,302,1.0,-999.0,66,-99.99,,,0.00,weatherlink.com 1.10,2013-02-01 10:01:00,
2013-02-01 05:16:00,51.1,40.0,30.17,NW,324,2.0,-999.0,67,-99.99,,,0.00,weatherlink.com 1.10,2013-02-01 10:16:00,
2013-02-01 05:31:00,51.1,41.0,30.17,WNW,302,4.0,-999.0,68,-99.99,,,0.00,weatherlink.com 1.10,2013-02-01 10:31:00,
2013-02-01 05:46:00,51.4,42.0,30.18,NNW,329,2.0,-999.0,69,-99.99,,,0.00,weatherlink.com 1.10,2013-02-01 10:46:00,
2013-02-01 06:01:00,51.5,42.0,30.18,NW,323,4.0,-999.0,70,-99.99,,,0.00,weatherlink.com 1.10,2013-02-01 11:01:00,
2013-02-01 06:16:00,51.9,42.0,30.18,NNW,333,1.0,-999.0,70,-99.99,,,0.00,weatherlink.com 1.10,2013-02-01 11:16:00,
2013-02-01 06:31:00,52.2,43.0,30.19,NW,315,2.0,-999.0,70,-99.99,,,0.00,weatherlink.com 1.10,2013-02-01 11:31:00,
2013-02-01 06:47:00,52.4,43.0,30.19,NW,324,2.0,-999.0,71,-99.99,,,0.00,weatherlink.com 1.10,2013-02-01 11:47:00,
2013-02-01 07:02:00,52.8,43.0,30.20,NNW,344,2.0,-999.0,70,-99.99,,,0.00,weatherlink.com 1.10,2013-02-01 12:02:00,
2013-02-01 07:17:00,52.7,44.0,30.20,NNE,29,2.0,-999.0,71,-99.99,,,0.00,weatherlink.com 1.10,2013-02-01 12:17:00,
2013-02-01 07:32:00,52.8,44.0,30.21,NW,313,3.0,-999.0,71,-99.99,,,0.00,weatherlink.com 1.10,2013-02-01 12:32:00,
2013-02-01 07:47:00,53.4,44.0,30.22,NNW,333,4.0,-999.0,70,-99.99,,,0.00,weatherlink.com 1.10,2013-02-01 12:47:00,
2013-02-01 08:02:00,54.1,45.0,30.22,NW,320,2.0,-999.0,70,-99.99,,,0.00,weatherlink.com 1.10,2013-02-01 13:02:00,
2013-02-01 08:17:00,54.7,45.0,30.23,WNW,290,6.0,-999.0,69,-99.99,,,0.00,weatherlink.com 1.10,2013-02-01 13:17:00,
2013-02-01 08:32:00,55.5,45.0,30.23,NNW,329,3.0,-999.0,68,-99.99,,,0.00,weatherlink.com 1.10,2013-02-01 13:32:00,
2013-02-01 08:47:00,56.3,45.0,30.25,North,5,4.0,-999.0,67,-99.99,,,0.00,weatherlink.com 1.10,2013-02-01 13:47:00,
2013-02-01 09:02:00,57.4,46.0,30.25,NW,320,4.0,-999.0,66,-99.99,,,0.00,weatherlink.com 1.10,2013-02-01 14:02:00,
2013-02-01 09:17:00,58.8,47.0,30.25,NNW,344,2.0,-999.0,66,-99.99,,,0.00,weatherlink.com 1.10,2013-02-01 14:17:00,
2013-02-01 09:32:00,59.9,48.0,30.26,North,5,4.0,-999.0,66,-99.99,,,0.00,weatherlink.com 1.10,2013-02-01 14:32:00,
2013-02-01 09:47:00,60.9,49.0,30.26,North,350,2.0,-999.0,65,-99.99,,,0.00,weatherlink.com 1.10,2013-02-01 14:47:00,
2013-02-01 10:02:00,62.4,50.0,30.26,NNE,19,3.0,-999.0,65,-99.99,,,0.00,weatherlink.com 1.10,2013-02-01 15:02:00,
2013-02-01 10:17:00,64.2,52.0,30.26,NNE,26,4.0,-999.0,64,-99.99,,,0.00,weatherlink.com 1.10,2013-02-01 15:17:00,
2013-02-01 10:32:00,65.5,52.0,30.26,NW,324,5.0,-999.0,63,-99.99,,,0.00,weatherlink.com 1.10,2013-02-01 15:32:00,
2013-02-01 10:47:00,66.1,53.0,30.26,NNW,348,10.0,-999.0,64,-99.99,,,0.00,weatherlink.com 1.10,2013-02-01 15:47:00,
2013-02-01 11:02:00,67.1,53.0,30.26,East,91,5.0,-999.0,62,-99.99,,,0.00,weatherlink.com 1.10,2013-02-01 16:02:00,
2013-02-01 11:17:00,67.7,54.0,30.25,North,5,2.0,-999.0,62,-99.99,,,0.00,weatherlink.com 1.10,2013-02-01 16:17:00,
2013-02-01 11:32:00,69.3,54.0,30.25,North,11,7.0,-999.0,59,-99.99,,,0.00,weatherlink.com 1.10,2013-02-01 16:32:00,
2013-02-01 11:47:00,70.5,55.0,30.25,NNE,19,3.0,-999.0,59,-99.99,,,0.00,weatherlink.com 1.10,2013-02-01 16:47:00,
2013-02-01 12:02:00,70.9,55.0,30.25,NE,35,9.0,-999.0,57,-99.99,,,0.00,weatherlink.com 1.10,2013-02-01 17:02:00,
2013-02-01 12:17:00,71.6,56.0,30.24,NE,34,2.0,-999.0,58,-99.99,,,0.00,weatherlink.com 1.10,2013-02-01 17:17:00,
2013-02-01 12:32:00,71.8,56.0,30.24,NW,325,4.0,-999.0,57,-99.99,,,0.00,weatherlink.com 1.10,2013-02-01 17:32:00,
2013-02-01 12:48:00,71.5,55.0,30.23,NW,320,4.0,-999.0,57,-99.99,,,0.00,weatherlink.com 1.10,2013-02-01 17:48:00,
2013-02-01 13:03:00,71.8,55.0,30.23,NNE,30,4.0,-999.0,56,-99.99,,,0.00,weatherlink.com 1.10,2013-02-01 18:03:00,
2013-02-01 13:18:00,72.1,55.0,30.22,NW,306,3.0,-999.0,56,-99.99,,,0.00,weatherlink.com 1.10,2013-02-01 18:18:00,
2013-02-01 13:33:00,72.1,55.0,30.21,NNW,332,4.0,-999.0,56,-99.99,,,0.00,weatherlink.com 1.10,2013-02-01 18:33:00,
2013-02-01 13:48:00,71.7,55.0,30.21,NE,49,3.0,-999.0,57,-99.99,,,0.00,weatherlink.com 1.10,2013-02-01 18:48:00,
2013-02-01 14:03:00,72.7,56.0,30.20,NE,39,6.0,-999.0,57,-99.99,,,0.00,weatherlink.com 1.10,2013-02-01 19:03:00,
2013-02-01 14:18:00,71.6,56.0,30.20,ESE,121,7.0,-999.0,58,-99.99,,,0.00,weatherlink.com 1.10,2013-02-01 19:18:00,
2013-02-01 14:33:00,72.0,55.0,30.20,NE,55,4.0,-999.0,56,-99.99,,,0.00,weatherlink.com 1.10,2013-02-01 19:33:00,
2013-02-01 14:48:00,71.9,56.0,30.20,NE,36,4.0,-999.0,57,-99.99,,,0.00,weatherlink.com 1.10,2013-02-01 19:48:00,
2013-02-01 15:03:00,72.2,56.0,30.20,NNW,338,1.0,-999.0,57,-99.99,,,0.00,weatherlink.com 1.10,2013-02-01 20:03:00,
2013-02-01 15:18:00,71.9,55.0,30.20,NNE,30,5.0,-999.0,56,-99.99,,,0.00,weatherlink.com 1.10,2013-02-01 20:18:00,
2013-02-01 15:33:00,71.7,55.0,30.19,NNE,32,5.0,-999.0,55,-99.99,,,0.00,weatherlink.com 1.10,2013-02-01 20:33:00,
2013-02-01 15:48:00,72.2,54.0,30.20,NW,323,5.0,-999.0,54,-99.99,,,0.00,weatherlink.com 1.10,2013-02-01 20:48:00,
2013-02-01 16:18:00,70.1,54.0,30.20,NNW,331,1.0,-999.0,58,-99.99,,,0.00,weatherlink.com 1.10,2013-02-01 21:18:00,
2013-02-01 16:33:00,70.3,54.0,30.20,NNW,329,2.0,-999.0,57,-99.99,,,0.00,weatherlink.com 1.10,2013-02-01 21:33:00,
2013-02-01 16:48:00,69.8,54.0,30.20,NNW,348,2.0,-999.0,58,-99.99,,,0.00,weatherlink.com 1.10,2013-02-01 21:48:00,
2013-02-01 17:03:00,69.6,55.0,30.21,NW,325,2.0,-999.0,60,-99.99,,,0.00,weatherlink.com 1.10,2013-02-01 22:03:00,
2013-02-01 17:18:00,68.6,55.0,30.21,NW,317,1.0,-999.0,62,-99.99,,,0.00,weatherlink.com 1.10,2013-02-01 22:18:00,
2013-02-01 17:33:00,68.1,55.0,30.21,NE,43,5.0,-999.0,64,-99.99,,,0.00,weatherlink.com 1.10,2013-02-01 22:33:00,
2013-02-01 17:48:00,67.5,55.0,30.21,NNE,17,5.0,-999.0,65,-99.99,,,0.00,weatherlink.com 1.10,2013-02-01 22:48:00,
2013-02-01 18:03:00,66.7,55.0,30.21,NE,47,3.0,-999.0,66,-99.99,,,0.00,weatherlink.com 1.10,2013-02-01 23:03:00,
2013-02-01 18:18:00,65.8,55.0,30.21,NNW,331,3.0,-999.0,68,-99.99,,,0.00,weatherlink.com 1.10,2013-02-01 23:18:00,
2013-02-01 18:33:00,65.3,55.0,30.22,NW,323,4.0,-999.0,69,-99.99,,,0.00,weatherlink.com 1.10,2013-02-01 23:33:00,
2013-02-01 18:48:00,64.6,55.0,30.22,NNW,342,4.0,-999.0,70,-99.99,,,0.00,weatherlink.com 1.10,2013-02-01 23:48:00,
2013-02-01 19:03:00,64.0,54.0,30.21,NW,314,2.0,-999.0,71,-99.99,,,0.00,weatherlink.com 1.10,2013-02-02 00:03:00,
2013-02-01 19:18:00,63.5,54.0,30.22,NE,40,3.0,-999.0,72,-99.99,,,0.00,weatherlink.com 1.10,2013-02-02 00:18:00,
2013-02-01 19:33:00,63.1,54.0,30.22,NW,309,2.0,-999.0,72,-99.99,,,0.00,weatherlink.com 1.10,2013-02-02 00:33:00,
2013-02-01 19:48:00,62.6,54.0,30.22,NE,43,5.0,-999.0,73,-99.99,,,0.00,weatherlink.com 1.10,2013-02-02 00:48:00,
2013-02-01 20:03:00,62.3,54.0,30.22,WNW,299,3.0,-999.0,73,-99.99,,,0.00,weatherlink.com 1.10,2013-02-02 01:03:00,
2013-02-01 20:18:00,61.9,53.0,30.22,NE,40,2.0,-999.0,73,-99.99,,,0.00,weatherlink.com 1.10,2013-02-02 01:18:00,
2013-02-01 20:33:00,61.5,52.0,30.22,NW,311,5.0,-999.0,72,-99.99,,,0.00,weatherlink.com 1.10,2013-02-02 01:33:00,
2013-02-01 20:48:00,61.2,52.0,30.23,NW,323,1.0,-999.0,73,-99.99,,,0.00,weatherlink.com 1.10,2013-02-02 01:48:00,
2013-02-01 21:03:00,60.9,52.0,30.23,NNW,332,1.0,-999.0,73,-99.99,,,0.00,weatherlink.com 1.10,2013-02-02 02:03:00,
2013-02-01 21:18:00,60.7,52.0,30.23,NNW,327,2.0,-999.0,72,-99.99,,,0.00,weatherlink.com 1.10,2013-02-02 02:18:00,
2013-02-01 21:33:00,60.1,51.0,30.23,NNW,331,0.0,-999.0,72,-99.99,,,0.00,weatherlink.com 1.10,2013-02-02 02:33:00,
2013-02-01 21:48:00,59.6,51.0,30.23,NW,323,0.0,-999.0,73,-99.99,,,0.00,weatherlink.com 1.10,2013-02-02 02:48:00,
2013-02-01 22:03:00,59.1,51.0,30.23,NNW,332,0.0,-999.0,74,-99.99,,,0.00,weatherlink.com 1.10,2013-02-02 03:03:00,
2013-02-01 22:18:00,58.7,51.0,30.23,NW,325,1.0,-999.0,75,-99.99,,,0.00,weatherlink.com 1.10,2013-02-02 03:18:00,
2013-02-01 22:33:00,58.3,51.0,30.23,NW,326,0.0,-999.0,76,-99.99,,,0.00,weatherlink.com 1.10,2013-02-02 03:33:00,
2013-02-01 22:48:00,58.2,51.0,30.23,NNW,329,0.0,-999.0,76,-99.99,,,0.00,weatherlink.com 1.10,2013-02-02 03:48:00,
2013-02-01 23:03:00,58.1,51.0,30.23,NW,318,0.0,-999.0,77,-99.99,,,0.00,weatherlink.com 1.10,2013-02-02 04:03:00,
2013-02-01 23:18:00,57.8,51.0,30.23,NNW,331,0.0,-999.0,77,-99.99,,,0.00,weatherlink.com 1.10,2013-02-02 04:18:00,
2013-02-01 23:33:00,57.4,51.0,30.23,NNW,329,0.0,-999.0,78,-99.99,,,0.00,weatherlink.com 1.10,2013-02-02 04:33:00,
2013-02-01 23:48:00,57.0,51.0,30.23,NNW,338,1.0,-999.0,79,-99.99,,,0.00,weatherlink.com 1.10,2013-02-02 04:48:00,